GW6851 Weather Reports


time (UTC)temp
C
wind
direction
speed
KPH
gust
KPH
rain 1hr
cm
rain 24hr
cm
rain mn
cm
humidity
%
barometer
mb
20260505140328 23 203 0.0 0.0 0.00 0.00 0.00 58 1017.8
20260505130252 21 233 0.0 0.0 0.00 0.00 0.00 69 1017.4
20260505124742 20 223 0.0 0.0 0.00 0.00 0.00 75 1017.1
20260505124239 20 214 1.6 1.6 0.00 0.00 0.00 75 1017.1
20260505123734 20 213 0.0 0.0 0.00 0.00 0.00 78 1017.4
20260505123232 19 213 0.0 0.0 0.00 0.00 0.00 80 1017.5
20260505122728 18 212 0.0 0.0 0.00 0.00 0.00 83 1017.3
20260505122225 17 213 0.0 0.0 0.00 0.00 0.00 88 1017.3
20260505121722 17 213 0.0 0.0 0.00 0.00 0.00 93 1017.3
20260505121219 16 213 0.0 0.0 0.00 0.00 0.00 95 1017.1
20260505120715 16 213 0.0 0.0 0.00 0.00 0.00 95 1017.0
20260505120211 16 213 0.0 0.0 0.00 0.00 0.00 96 1017.1
20260505115704 15 213 0.0 0.0 0.00 0.00 0.00 96 1017.0
20260505115203 15 213 0.0 0.0 0.00 0.00 0.00 96 1016.9
20260505114700 15 212 0.0 0.0 0.00 0.00 0.00 96 1017.0
20260505114155 15 212 0.0 0.0 0.00 0.00 0.00 96 1016.9
20260505113652 14 213 0.0 0.0 0.00 0.00 0.00 96 1016.8
20260505113149 14 213 0.0 0.0 0.00 0.00 0.00 96 1016.9
20260505112645 13 213 0.0 0.0 0.00 0.00 0.00 95 1016.8
20260505112143 13 213 0.0 0.0 0.00 0.00 0.00 95 1016.8
20260505111642 13 213 0.0 0.0 0.00 0.00 0.00 95 1016.8
20260505111138 13 213 0.0 0.0 0.00 0.00 0.00 95 1016.8
20260505110635 13 213 0.0 0.0 0.00 0.00 0.00 95 1016.4
20260505110132 13 213 0.0 0.0 0.00 0.00 0.00 95 1016.6
20260505102108 13 213 0.0 0.0 0.00 0.00 0.00 94 1016.5
20260505101607 13 213 0.0 0.0 0.00 0.00 0.00 94 1016.3
20260505101102 13 213 0.0 0.0 0.00 0.00 0.00 94 1016.2
20260505100559 13 213 0.0 0.0 0.00 0.00 0.00 94 1016.4
20260505100056 13 213 0.0 0.0 0.00 0.00 0.00 94 1016.1
20260505095552 13 213 0.0 0.0 0.00 0.00 0.00 94 1016.1
20260505095049 13 213 0.0 0.0 0.00 0.00 0.00 94 1016.2
20260505094545 13 213 0.0 0.0 0.00 0.00 0.00 94 1015.9
20260505094041 13 213 0.0 0.0 0.00 0.00 0.00 94 1016.1
20260505093538 13 213 0.0 0.0 0.00 0.00 0.00 93 1016.0
20260505093035 13 213 0.0 0.0 0.00 0.00 0.00 93 1015.8
20260505092532 13 213 0.0 0.0 0.00 0.00 0.00 93 1015.7
20260505092031 13 213 0.0 0.0 0.00 0.00 0.00 93 1015.6
20260505091527 13 213 0.0 0.0 0.00 0.00 0.00 93 1015.9
20260505091026 13 213 0.0 0.0 0.00 0.00 0.00 93 1015.7
20260505090524 13 213 0.0 0.0 0.00 0.00 0.00 93 1015.7
20260505090021 13 213 0.0 0.0 0.00 0.00 0.00 92 1015.7
20260505085519 13 213 0.0 0.0 0.00 0.00 0.00 92 1015.7
20260505085017 13 213 0.0 0.0 0.00 0.00 0.00 92 1015.9
20260505084515 14 213 0.0 0.0 0.00 0.00 0.00 92 1015.7
20260505084012 14 213 0.0 0.0 0.00 0.00 0.00 92 1015.7
20260505083509 14 213 0.0 0.0 0.00 0.00 0.00 92 1015.8
20260505083006 14 213 0.0 0.0 0.00 0.00 0.00 91 1015.5
20260505082501 14 213 0.0 0.0 0.00 0.00 0.00 91 1015.4
20260505081959 14 213 0.0 0.0 0.00 0.00 0.00 91 1015.3
20260505081455 14 213 0.0 0.0 0.00 0.00 0.00 91 1015.6
20260505080952 14 213 0.0 0.0 0.00 0.00 0.00 91 1015.6
20260505080448 14 213 0.0 0.0 0.00 0.00 0.00 90 1015.5
20260505075944 14 213 0.0 0.0 0.00 0.00 0.00 90 1015.7
20260505075440 14 213 0.0 0.0 0.00 0.00 0.00 89 1015.5
20260505074938 14 213 0.0 0.0 0.00 0.00 0.00 89 1015.5
20260505074435 14 213 0.0 0.0 0.00 0.00 0.00 90 1015.6
20260505073932 14 213 0.0 0.0 0.00 0.00 0.00 90 1015.5
20260505073430 14 213 0.0 0.0 0.00 0.00 0.00 90 1015.4
20260505072927 14 213 0.0 0.0 0.00 0.00 0.00 90 1015.6
20260505072423 14 213 0.0 0.0 0.00 0.00 0.00 89 1015.6
20260505071919 15 213 0.0 0.0 0.00 0.00 0.00 89 1015.7
20260505071415 15 213 0.0 0.0 0.00 0.00 0.00 89 1015.7
20260505070914 15 213 0.0 0.0 0.00 0.00 0.00 88 1015.8
20260505070409 15 213 0.0 0.0 0.00 0.00 0.00 88 1016.0
20260505065905 15 213 0.0 0.0 0.00 0.00 0.00 87 1015.9
20260505065402 15 213 0.0 0.0 0.00 0.00 0.00 87 1016.1
20260505064859 15 213 0.0 0.0 0.00 0.00 0.00 86 1016.2
20260505064356 15 213 0.0 0.0 0.00 0.00 0.00 85 1016.0
20260505063855 15 213 0.0 0.0 0.00 0.00 0.00 84 1016.2
20260505063355 15 213 0.0 0.0 0.00 0.00 0.00 84 1016.1
20260505062852 15 213 0.0 0.0 0.00 0.00 0.00 83 1016.2
20260505062350 15 213 0.0 0.0 0.00 0.00 0.00 83 1016.2
20260505061846 15 213 0.0 0.0 0.00 0.00 0.00 83 1016.5
20260505061344 16 213 0.0 0.0 0.00 0.00 0.00 82 1016.7
20260505060842 16 213 0.0 0.0 0.00 0.00 0.00 82 1016.6
20260505060338 16 213 0.0 0.0 0.00 0.00 0.00 81 1016.8
20260505055834 16 213 0.0 0.0 0.00 0.00 0.00 80 1016.7
20260505055330 16 213 0.0 0.0 0.00 0.00 0.00 79 1016.6
20260505054828 16 213 0.0 0.0 0.00 0.00 0.00 78 1016.7
20260505054325 17 213 0.0 0.0 0.00 0.00 0.00 76 1016.9
20260505053823 17 213 0.0 0.0 0.00 0.00 0.00 74 1016.8
20260505053320 17 213 0.0 0.0 0.00 0.00 0.00 73 1017.0
20260505052817 17 213 0.0 0.0 0.00 0.00 0.00 71 1017.0
20260505052314 18 213 0.0 0.0 0.00 0.00 0.00 70 1017.3
20260505051811 18 213 0.0 0.0 0.00 0.00 0.00 70 1017.2
20260505051308 18 213 0.0 0.0 0.00 0.00 0.00 69 1017.1
20260505050806 19 213 0.0 0.0 0.00 0.00 0.00 68 1017.2
20260505050305 19 213 1.6 1.6 0.00 0.00 0.00 67 1017.4
20260505041734 20 203 0.0 0.0 0.00 0.00 0.00 64 1017.4
20260505041231 20 222 0.0 0.0 0.00 0.00 0.00 63 1017.5
20260505040729 20 156 0.0 0.0 0.00 0.00 0.00 63 1017.4
20260505040226 20 174 0.0 0.0 0.00 0.00 0.00 63 1017.6
20260505035723 20 137 1.6 1.6 0.00 0.00 0.00 64 1017.3
20260505035219 20 164 0.0 0.0 0.00 0.00 0.00 63 1017.4
20260505034716 20 254 0.0 0.0 0.00 0.00 0.00 63 1017.5
20260505034213 20 166 1.6 1.6 0.00 0.00 0.00 63 1017.7
20260505033709 20 172 0.0 0.0 0.00 0.00 0.00 63 1017.5
20260505033207 20 150 0.0 0.0 0.00 0.00 0.00 63 1017.4
20260505032705 20 162 0.0 1.6 0.00 0.00 0.00 63 1017.4
20260505032200 20 152 1.6 1.6 0.00 0.00 0.00 63 1017.4
20260505031658 20 332 1.6 3.2 0.00 0.00 0.00 63 1017.1
20260505031154 20 122 1.6 1.6 0.00 0.00 0.00 63 1017.4
20260505030651 20 125 0.0 0.0 0.00 0.00 0.00 64 1017.6
20260505030147 20 125 0.0 0.0 0.00 0.00 0.00 63 1017.4
20260505025643 20 125 0.0 0.0 0.00 0.00 0.00 64 1017.2
20260505025142 20 84 0.0 0.0 0.00 0.00 0.00 64 1017.3
20260505024639 20 195 0.0 0.0 0.00 0.00 0.00 64 1017.4
20260505024136 20 195 0.0 0.0 0.00 0.00 0.00 64 1017.1
20260505023633 20 160 1.6 1.6 0.00 0.00 0.00 65 1017.2
20260505023131 20 175 0.0 0.0 0.00 0.00 0.00 63 1017.1
20260505022628 20 147 0.0 0.0 0.00 0.00 0.00 63 1017.2
20260505022125 20 152 1.6 3.2 0.00 0.00 0.00 64 1017.2
20260505021621 20 131 0.0 1.6 0.00 0.00 0.00 64 1017.3
20260505021118 20 132 0.0 0.0 0.00 0.00 0.00 64 1017.1
20260505020614 20 129 0.0 1.6 0.00 0.00 0.00 64 1017.3
20260505020110 20 42 0.0 0.0 0.00 0.00 0.00 63 1017.4
20260505015608 20 179 1.6 1.6 0.00 0.00 0.00 64 1017.2
20260505015104 20 189 0.0 0.0 0.00 0.00 0.00 64 1017.2
20260505014601 20 198 0.0 0.0 0.00 0.00 0.00 64 1017.2
20260505014058 20 213 0.0 0.0 0.00 0.00 0.00 64 1017.2
20260505013555 20 130 0.0 0.0 0.00 0.00 0.00 65 1017.2
20260505013052 20 130 0.0 0.0 0.00 0.00 0.00 65 1017.0
20260505012550 20 129 1.6 1.6 0.00 0.00 0.00 65 1016.9
20260505012047 20 142 0.0 0.0 0.00 0.00 0.00 65 1017.3
20260505011543 20 119 0.0 0.0 0.00 0.00 0.00 65 1017.1
20260505011040 20 119 0.0 0.0 0.00 0.00 0.00 64 1017.2
20260505010535 20 119 0.0 0.0 0.00 0.00 0.00 64 1017.1
20260505010032 20 122 0.0 0.0 0.00 0.00 0.00 64 1016.9
20260505005528 20 291 0.0 0.0 0.00 0.00 0.00 65 1016.8
20260505005026 20 293 0.0 0.0 0.00 0.00 0.00 64 1016.9
20260505004523 20 293 0.0 0.0 0.00 0.00 0.00 64 1016.8
20260505004020 20 293 0.0 0.0 0.00 0.00 0.00 63 1016.8
20260505003517 20 291 0.0 0.0 0.00 0.00 0.00 63 1016.7
20260505003014 20 156 0.0 0.0 0.00 0.00 0.00 63 1016.6
20260505002509 20 191 1.6 1.6 0.00 0.00 0.00 63 1016.7
20260505002008 21 139 0.0 0.0 0.00 0.00 0.00 62 1016.8
20260505001505 21 182 1.6 0.0 0.00 0.00 0.00 63 1016.9
20260505001002 21 103 0.0 0.0 0.00 0.00 0.00 62 1016.7
20260505000500 21 224 1.6 1.6 0.00 0.00 0.00 62 1016.7
20260504235956 21 176 0.0 1.6 0.00 0.00 0.00 61 1016.9
20260504235454 21 183 0.0 0.0 0.00 0.00 0.00 61 1016.7
20260504234950 21 167 0.0 0.0 0.00 0.00 0.00 61 1016.7
20260504234447 21 138 1.6 1.6 0.00 0.00 0.00 60 1016.5
20260504233944 21 144 1.6 1.6 0.00 0.00 0.00 61 1016.6
20260504233439 21 130 1.6 1.6 0.00 0.00 0.00 60 1016.5
20260504232937 21 100 1.6 1.6 0.00 0.00 0.00 59 1016.6
20260504232434 21 225 0.0 1.6 0.00 0.00 0.00 60 1016.6
20260504231931 22 139 0.0 0.0 0.00 0.00 0.00 60 1016.6
20260504231427 22 115 1.6 1.6 0.00 0.00 0.00 59 1016.4
20260504230923 22 123 1.6 1.6 0.00 0.00 0.00 59 1016.4
20260504230420 22 157 1.6 3.2 0.00 0.00 0.00 59 1016.4
20260504225920 22 161 3.2 4.8 0.00 0.00 0.00 59 1016.5
20260504225416 22 246 1.6 3.2 0.00 0.00 0.00 60 1016.5
20260504224913 22 197 0.0 0.0 0.00 0.00 0.00 59 1016.7
20260504224410 22 158 3.2 6.4 0.00 0.00 0.00 58 1016.6
20260504223907 22 160 0.0 0.0 0.00 0.00 0.00 58 1016.7
20260504223402 22 142 0.0 0.0 0.00 0.00 0.00 58 1016.5
20260504222858 22 122 1.6 1.6 0.00 0.00 0.00 57 1016.6
20260504222355 22 117 1.6 1.6 0.00 0.00 0.00 56 1016.6
20260504221854 23 150 1.6 1.6 0.00 0.00 0.00 55 1016.8
20260504221350 23 138 1.6 4.8 0.00 0.00 0.00 56 1016.7
20260504220848 23 343 0.0 0.0 0.00 0.00 0.00 54 1016.6
20260504220344 23 159 0.0 0.0 0.00 0.00 0.00 53 1016.6
20260504215841 23 162 1.6 1.6 0.00 0.00 0.00 54 1016.7
20260504215338 23 78 3.2 3.2 0.00 0.00 0.00 54 1016.8
20260504214834 23 130 3.2 3.2 0.00 0.00 0.00 52 1016.7
20260504214331 23 112 3.2 3.2 0.00 0.00 0.00 51 1016.6
20260504213828 23 163 1.6 1.6 0.00 0.00 0.00 52 1016.4
20260504213323 23 142 1.6 1.6 0.00 0.00 0.00 51 1016.5
20260504212821 23 273 1.6 1.6 0.00 0.00 0.00 50 1016.7
20260504212317 23 133 0.0 1.6 0.00 0.00 0.00 50 1016.7
20260504211815 23 118 1.6 3.2 0.00 0.00 0.00 51 1016.8
20260504211311 23 158 1.6 1.6 0.00 0.00 0.00 49 1016.8
20260504210808 23 33 1.6 1.6 0.00 0.00 0.00 48 1016.9
20260504210305 24 138 1.6 1.6 0.00 0.00 0.00 47 1016.8
20260504205803 24 180 1.6 0.0 0.00 0.00 0.00 47 1016.8
20260504205300 24 152 1.6 1.6 0.00 0.00 0.00 48 1016.8
20260504204758 24 357 3.2 3.2 0.00 0.00 0.00 47 1016.8
20260504204256 25 163 0.0 1.6 0.00 0.00 0.00 46 1016.7
20260504203755 25 233 0.0 0.0 0.00 0.00 0.00 47 1016.8
20260504203252 25 183 1.6 1.6 0.00 0.00 0.00 46 1017.0
20260504202752 25 190 0.0 0.0 0.00 0.00 0.00 44 1016.9
20260504202250 25 200 3.2 3.2 0.00 0.00 0.00 44 1017.0
20260504201747 25 300 3.2 1.6 0.00 0.00 0.00 44 1017.1
20260504201244 25 198 1.6 1.6 0.00 0.00 0.00 44 1016.8
20260504200742 26 136 1.6 1.6 0.00 0.00 0.00 43 1017.1
20260504200237 25 22 1.6 1.6 0.00 0.00 0.00 43 1016.8
20260504195734 25 134 1.6 1.6 0.00 0.00 0.00 42 1017.2
20260504195230 26 115 4.8 4.8 0.00 0.00 0.00 40 1017.2
20260504194728 26 66 3.2 3.2 0.00 0.00 0.00 40 1017.3
20260504194223 26 20 1.6 1.6 0.00 0.00 0.00 40 1017.3
20260504193720 26 143 1.6 3.2 0.00 0.00 0.00 39 1017.6
20260504193218 26 148 1.6 1.6 0.00 0.00 0.00 40 1017.6
20260504192716 26 150 1.6 1.6 0.00 0.00 0.00 38 1017.6
20260504192213 26 6 3.2 3.2 0.00 0.00 0.00 38 1017.7
20260504191712 27 163 1.6 3.2 0.00 0.00 0.00 39 1018.0
20260504191208 26 252 0.0 0.0 0.00 0.00 0.00 40 1017.7
20260504190704 26 195 0.0 0.0 0.00 0.00 0.00 39 1017.6
20260504190200 26 179 1.6 1.6 0.00 0.00 0.00 38 1017.8
20260504185657 26 158 3.2 3.2 0.00 0.00 0.00 37 1017.9
20260504185153 26 222 1.6 1.6 0.00 0.00 0.00 36 1017.8
20260504184650 26 138 1.6 1.6 0.00 0.00 0.00 38 1018.1
20260504184145 26 175 1.6 1.6 0.00 0.00 0.00 36 1018.0
20260504183642 26 169 0.0 1.6 0.00 0.00 0.00 37 1018.0
20260504183139 26 149 1.6 1.6 0.00 0.00 0.00 35 1018.0
20260504182637 27 247 0.0 1.6 0.00 0.00 0.00 34 1018.1
20260504182134 27 224 1.6 1.6 0.00 0.00 0.00 34 1018.2
20260504181632 27 138 1.6 1.6 0.00 0.00 0.00 33 1018.1
20260504181129 27 1 3.2 4.8 0.00 0.00 0.00 33 1018.1
20260504180628 27 182 4.8 4.8 0.00 0.00 0.00 32 1018.3
20260504180126 27 66 1.6 1.6 0.00 0.00 0.00 32 1018.1
20260504175623 27 191 1.6 0.0 0.00 0.00 0.00 33 1018.4
20260504175120 27 10 3.2 3.2 0.00 0.00 0.00 30 1018.3
20260504174618 27 133 1.6 1.6 0.00 0.00 0.00 33 1018.6
20260504174114 27 338 3.2 3.2 0.00 0.00 0.00 32 1018.5
20260504173611 27 151 3.2 3.2 0.00 0.00 0.00 31 1018.7
20260504173109 27 160 0.0 0.0 0.00 0.00 0.00 33 1018.5
20260504172605 27 29 3.2 3.2 0.00 0.00 0.00 31 1018.7
20260504172101 27 155 3.2 1.6 0.00 0.00 0.00 32 1018.6
20260504171558 27 84 1.6 1.6 0.00 0.00 0.00 33 1018.8
20260504171055 27 65 1.6 1.6 0.00 0.00 0.00 31 1018.6
20260504170551 27 121 1.6 1.6 0.00 0.00 0.00 30 1018.8
20260504150935 26 93 1.6 1.6 0.00 0.00 0.00 35 1019.0
20260504150432 26 4 0.0 0.0 0.00 0.00 0.00 32 1018.7